START_TIME,STEP,MOV.,P11,t_acc.,P23,t_acc.,P27,t_acc.,A4,t_acc.
1980-11-13 15:00:11.650 ,5,0,3.,4.8,0.,4.8,0.,4.8,0.,4.8
1980-11-13 15:00:16.450 ,5,0,5.,4.8,0.,4.8,0.,4.8,0.,4.8
1980-11-13 15:00:21.250 ,5,0,2.,4.8,0.,4.8,0.,4.8,0.,4.8
1980-11-13 15:00:26.050 ,5,0,1.,4.8,0.,4.8,0.,4.8,0.,4.8
1980-11-13 15:00:30.850 ,5,0,1.,4.8,0.,4.8,0.,4.8,0.,4.8
1980-11-13 15:00:35.650 ,6,0,3.,4.8,0.,4.8,0.,4.8,0.,4.8
1980-11-13 15:00:40.450 ,6,0,0.,4.8,0.,4.8,0.,4.8,0.,4.8
1980-11-13 15:00:45.250 ,6,0,5.,4.8,0.,4.8,0.,4.8,0.,4.8
1980-11-13 15:00:50.050 ,6,0,2.,4.8,0.,4.8,0.,4.8,0.,4.8
1980-11-13 15:00:54.850 ,6,0,3.,4.8,0.,4.8,0.,4.8,0.,4.8
1980-11-13 15:00:59.650 ,6,0,4.,4.8,0.,4.8,0.,4.8,0.,4.8
1980-11-13 15:01:04.450 ,6,0,4.,4.8,0.,4.8,0.,4.8,0.,4.8
1980-11-13 15:01:09.250 ,6,0,0.,4.8,0.,4.8,0.,4.8,0.,4.8
1980-11-13 15:01:14.050 ,6,0,5.,4.8,0.,4.8,0.,4.8,0.,4.8
1980-11-13 15:01:18.850 ,6,0,3.,4.8,0.,4.8,0.,4.8,0.,4.8
1980-11-13 15:01:23.650 ,7,0,4.,4.8,0.,4.8,0.,4.8,0.,4.8
1980-11-13 15:01:28.450 ,7,0,1.,4.8,0.,4.8,0.,4.8,0.,4.8
1980-11-13 15:01:33.250 ,7,0,4.,4.8,0.,4.8,0.,4.8,0.,4.8
1980-11-13 15:01:38.050 ,7,0,6.,4.8,0.,4.8,0.,4.8,0.,4.8
1980-11-13 15:01:42.850 ,7,0,0.,4.8,0.,4.8,0.,4.8,0.,4.8
1980-11-13 15:01:47.650 ,7,0,2.,4.8,0.,4.8,0.,4.8,0.,4.8
1980-11-13 15:01:52.450 ,7,0,2.,4.8,0.,4.8,0.,4.8,0.,4.8
1980-11-13 15:01:57.250 ,7,0,0.,4.8,0.,4.8,0.,4.8,0.,4.8
1980-11-13 15:02:02.050 ,7,0,5.,4.8,0.,4.8,0.,4.8,0.,4.8
1980-11-13 15:02:06.850 ,7,0,5.,4.8,0.,4.8,0.,4.8,0.,4.8
1980-11-13 15:02:11.650 ,7,0,2.,4.8,0.,4.8,0.,4.8,0.,4.8
1980-11-13 15:02:16.450 ,7,0,2.,4.8,0.,4.8,0.,4.8,0.,4.8
1980-11-13 15:02:21.250 ,7,0,4.,4.8,0.,4.8,0.,4.8,0.,4.8
1980-11-13 15:02:26.050 ,7,0,4.,4.8,0.,4.8,0.,4.8,0.,4.8
1980-11-13 15:02:30.850 ,7,0,5.,4.8,0.,4.8,0.,4.8,0.,4.8
1980-11-13 15:02:35.650 ,7,0,3.,4.8,0.,4.8,0.,4.8,0.,4.8
1980-11-13 15:02:40.450 ,7,0,3.,4.8,0.,4.8,0.,4.8,0.,4.8
1980-11-13 15:02:45.250 ,7,0,0.,4.8,0.,4.8,0.,4.8,0.,4.8
1980-11-13 15:02:50.050 ,7,0,3.,4.8,0.,4.8,0.,4.8,0.,4.8
1980-11-13 15:02:54.850 ,7,0,1.,4.8,0.,4.8,0.,4.8,0.,4.8
1980-11-13 15:02:59.650 ,6,0,3.,4.8,0.,4.8,0.,4.8,0.,4.8
1980-11-13 15:03:04.450 ,6,0,3.,4.8,0.,4.8,0.,4.8,0.,4.8
1980-11-13 15:03:09.250 ,6,0,0.,4.8,0.,4.8,0.,4.8,0.,4.8
1980-11-13 15:03:14.050 ,6,0,3.,4.8,0.,4.8,0.,4.8,0.,4.8
1980-11-13 15:03:18.850 ,6,0,3.,4.8,0.,4.8,0.,4.8,0.,4.8
1980-11-13 15:03:23.650 ,6,0,2.,4.8,0.,4.8,0.,4.8,0.,4.8
1980-11-13 15:03:28.450 ,6,0,3.,4.8,0.,4.8,0.,4.8,0.,4.8
1980-11-13 15:03:33.250 ,6,0,3.,4.8,0.,4.8,0.,4.8,0.,4.8
1980-11-13 15:03:38.050 ,6,0,1.,4.8,0.,4.8,0.,4.8,0.,4.8
1980-11-13 15:03:42.850 ,6,0,1.,4.8,0.,4.8,0.,4.8,0.,4.8
1980-11-13 15:03:47.650 ,5,0,4.,4.8,0.,4.8,0.,4.8,0.,4.8
1980-11-13 15:03:52.450 ,5,0,3.,4.8,0.,4.8,0.,4.8,0.,4.8
1980-11-13 15:03:57.250 ,5,0,2.,4.8,0.,4.8,0.,4.8,0.,4.8
1980-11-13 15:04:02.050 ,5,0,1.,4.8,0.,4.8,0.,4.8,0.,4.8
1980-11-13 15:04:06.850 ,5,0,6.,4.8,0.,4.8,0.,4.8,0.,4.8
1980-11-13 15:04:11.650 ,5,0,1.,4.8,0.,4.8,0.,4.8,0.,4.8
1980-11-13 15:04:16.450 ,5,0,4.,4.8,0.,4.8,0.,4.8,0.,4.8
1980-11-13 15:04:21.250 ,5,0,1.,4.8,0.,4.8,0.,4.8,0.,4.8
1980-11-13 15:04:26.050 ,5,0,4.,4.8,0.,4.8,0.,4.8,0.,4.8
1980-11-13 15:04:30.850 ,5,0,3.,4.8,0.,4.8,0.,4.8,0.,4.8
1980-11-13 15:04:35.650 ,4,0,2.,4.8,0.,4.8,0.,4.8,0.,4.8
1980-11-13 15:04:40.450 ,4,0,3.,4.8,0.,4.8,0.,4.8,0.,4.8
1980-11-13 15:04:45.250 ,4,0,2.,4.8,0.,4.8,0.,4.8,0.,4.8
1980-11-13 15:04:50.050 ,4,0,3.,4.8,0.,4.8,0.,4.8,0.,4.8
1980-11-13 15:04:54.850 ,4,0,5.,4.8,0.,4.8,0.,4.8,0.,4.8
1980-11-13 15:04:59.650 ,4,0,0.,4.8,0.,4.8,0.,4.8,0.,4.8
1980-11-13 15:05:04.450 ,4,0,3.,4.8,0.,4.8,0.,4.8,0.,4.8
1980-11-13 15:05:09.250 ,4,0,5.,4.8,0.,4.8,0.,4.8,0.,4.8
1980-11-13 15:05:14.050 ,4,0,5.,4.8,0.,4.8,0.,4.8,0.,4.8
1980-11-13 15:05:18.850 ,4,0,3.,4.8,0.,4.8,0.,4.8,0.,4.8
1980-11-13 15:05:23.650 ,3,0,3.,4.8,0.,4.8,0.,4.8,0.,4.8
1980-11-13 15:05:28.450 ,3,0,5.,4.8,0.,4.8,0.,4.8,0.,4.8
1980-11-13 15:05:33.250 ,3,0,4.,4.8,0.,4.8,0.,4.8,0.,4.8
1980-11-13 15:05:38.050 ,3,0,1.,4.8,0.,4.8,0.,4.8,0.,4.8
1980-11-13 15:05:42.850 ,3,0,1.,4.8,0.,4.8,0.,4.8,0.,4.8
1980-11-13 15:05:47.650 ,3,0,1.,4.8,0.,4.8,0.,4.8,0.,4.8
1980-11-13 15:05:52.450 ,3,0,3.,4.8,0.,4.8,0.,4.8,0.,4.8
1980-11-13 15:05:57.250 ,3,0,1.,4.8,0.,4.8,0.,4.8,0.,4.8
1980-11-13 15:06:02.050 ,3,0,3.,4.8,0.,4.8,0.,4.8,0.,4.8
1980-11-13 15:06:06.850 ,3,0,2.,4.8,0.,4.8,0.,4.8,0.,4.8
1980-11-13 15:06:11.650 ,2,0,2.,4.8,0.,4.8,0.,4.8,0.,4.8
1980-11-13 15:06:16.450 ,2,0,1.,4.8,0.,4.8,0.,4.8,0.,4.8
1980-11-13 15:06:21.250 ,2,0,1.,4.8,0.,4.8,0.,4.8,0.,4.8
1980-11-13 15:06:26.050 ,2,0,2.,4.8,0.,4.8,0.,4.8,0.,4.8
1980-11-13 15:06:30.850 ,2,0,1.,4.8,0.,4.8,0.,4.8,0.,4.8
1980-11-13 15:06:35.650 ,2,0,4.,4.8,0.,4.8,0.,4.8,0.,4.8
1980-11-13 15:06:40.450 ,2,0,2.,4.8,0.,4.8,0.,4.8,0.,4.8
1980-11-13 15:06:45.250 ,2,0,1.,4.8,0.,4.8,0.,4.8,0.,4.8
1980-11-13 15:06:50.050 ,2,0,3.,4.8,0.,4.8,0.,4.8,0.,4.8
1980-11-13 15:06:54.850 ,2,0,1.,4.8,0.,4.8,0.,4.8,0.,4.8
1980-11-13 15:06:59.650 ,1,0,4.,4.8,0.,4.8,0.,4.8,0.,4.8
1980-11-13 15:07:04.450 ,1,0,2.,4.8,0.,4.8,0.,4.8,0.,4.8
1980-11-13 15:07:09.250 ,1,0,3.,4.8,0.,4.8,0.,4.8,0.,4.8
1980-11-13 15:07:14.050 ,1,0,4.,4.8,0.,4.8,0.,4.8,0.,4.8
1980-11-13 15:07:18.850 ,1,0,0.,4.8,0.,4.8,0.,4.8,0.,4.8
1980-11-13 15:07:23.650 ,1,0,5.,4.8,0.,4.8,0.,4.8,0.,4.8
1980-11-13 15:07:28.450 ,1,0,2.,4.8,0.,4.8,0.,4.8,0.,4.8
1980-11-13 15:07:33.250 ,1,0,1.,4.8,0.,4.8,0.,4.8,0.,4.8
1980-11-13 15:07:38.050 ,1,0,3.,4.8,0.,4.8,0.,4.8,0.,4.8
1980-11-13 15:07:42.850 ,1,0,2.,4.8,0.,4.8,0.,4.8,0.,4.8
1980-11-13 15:07:47.650 ,0,0,5.,4.8,0.,4.8,0.,4.8,0.,4.8
1980-11-13 15:07:52.450 ,0,0,2.,4.8,0.,4.8,0.,4.8,0.,4.8
1980-11-13 15:07:57.250 ,0,0,4.,4.8,0.,4.8,0.,4.8,0.,4.8
1980-11-13 15:08:02.050 ,0,0,3.,4.8,0.,4.8,0.,4.8,0.,4.8
1980-11-13 15:08:06.850 ,0,0,3.,4.8,0.,4.8,0.,4.8,0.,4.8
1980-11-13 15:08:11.650 ,0,0,5.,4.8,0.,4.8,0.,4.8,0.,4.8
1980-11-13 15:08:16.450 ,0,0,5.,4.8,0.,4.8,0.,4.8,0.,4.8
1980-11-13 15:08:21.250 ,0,0,1.,4.8,0.,4.8,0.,4.8,0.,4.8
1980-11-13 15:08:26.050 ,0,0,1.,4.8,0.,4.8,0.,4.8,0.,4.8
1980-11-13 15:08:30.850 ,0,0,3.,4.8,0.,4.8,0.,4.8,0.,4.8
1980-11-13 15:08:35.650 ,0,0,3.,4.8,0.,4.8,0.,4.8,0.,4.8
1980-11-13 15:08:40.450 ,0,0,2.,4.8,0.,4.8,0.,4.8,0.,4.8
1980-11-13 15:08:45.250 ,0,0,2.,4.8,0.,4.8,0.,4.8,0.,4.8
1980-11-13 15:08:50.050 ,0,0,0.,4.8,0.,4.8,0.,4.8,0.,4.8
1980-11-13 15:08:54.850 ,0,0,3.,4.8,0.,4.8,0.,4.8,0.,4.8
1980-11-13 15:08:59.650 ,0,0,3.,4.8,0.,4.8,0.,4.8,0.,4.8
1980-11-13 15:09:04.450 ,0,0,2.,4.8,0.,4.8,0.,4.8,0.,4.8
1980-11-13 15:09:09.250 ,0,0,6.,4.8,0.,4.8,0.,4.8,0.,4.8
1980-11-13 15:09:14.050 ,0,0,3.,4.8,0.,4.8,0.,4.8,0.,4.8
1980-11-13 15:09:18.850 ,0,0,2.,4.8,0.,4.8,0.,4.8,0.,4.8
1980-11-13 15:09:23.650 ,1,0,2.,4.8,0.,4.8,0.,4.8,0.,4.8
1980-11-13 15:09:28.450 ,1,0,2.,4.8,0.,4.8,0.,4.8,0.,4.8
1980-11-13 15:09:33.250 ,1,0,1.,4.8,0.,4.8,0.,4.8,0.,4.8
1980-11-13 15:09:38.050 ,1,0,1.,4.8,0.,4.8,0.,4.8,0.,4.8
1980-11-13 15:09:42.850 ,1,0,3.,4.8,0.,4.8,0.,4.8,0.,4.8
1980-11-13 15:09:47.650 ,1,0,2.,4.8,0.,4.8,0.,4.8,0.,4.8
1980-11-13 15:09:52.450 ,1,0,1.,4.8,0.,4.8,0.,4.8,0.,4.8
1980-11-13 15:09:57.250 ,1,0,1.,4.8,0.,4.8,0.,4.8,0.,4.8
1980-11-13 15:10:02.050 ,1,0,4.,4.8,0.,4.8,0.,4.8,0.,4.8
1980-11-13 15:10:06.850 ,1,0,2.,4.8,0.,4.8,0.,4.8,0.,4.8
1980-11-13 15:10:11.650 ,2,0,4.,4.8,0.,4.8,0.,4.8,0.,4.8
1980-11-13 15:10:16.450 ,2,0,4.,4.8,0.,4.8,0.,4.8,0.,4.8
1980-11-13 15:10:21.250 ,2,0,0.,4.8,0.,4.8,0.,4.8,0.,4.8
1980-11-13 15:10:26.050 ,2,0,3.,4.8,0.,4.8,0.,4.8,0.,4.8
1980-11-13 15:10:30.850 ,2,0,3.,4.8,0.,4.8,0.,4.8,0.,4.8
1980-11-13 15:10:35.650 ,2,0,2.,4.8,0.,4.8,0.,4.8,0.,4.8
1980-11-13 15:10:40.450 ,2,0,4.,4.8,0.,4.8,0.,4.8,0.,4.8
1980-11-13 15:10:45.250 ,2,0,2.,4.8,0.,4.8,0.,4.8,0.,4.8
1980-11-13 15:10:50.050 ,2,0,5.,4.8,0.,4.8,0.,4.8,0.,4.8
1980-11-13 15:10:54.850 ,2,0,5.,4.8,0.,4.8,0.,4.8,0.,4.8
1980-11-13 15:10:59.650 ,3,0,3.,4.8,0.,4.8,0.,4.8,0.,4.8
1980-11-13 15:11:04.450 ,3,0,4.,4.8,0.,4.8,0.,4.8,0.,4.8
1980-11-13 15:11:09.250 ,3,0,2.,4.8,0.,4.8,0.,4.8,0.,4.8
1980-11-13 15:11:14.050 ,3,0,4.,4.8,0.,4.8,0.,4.8,0.,4.8
1980-11-13 15:11:18.850 ,3,0,1.,4.8,0.,4.8,0.,4.8,0.,4.8
1980-11-13 15:11:23.650 ,3,0,1.,4.8,0.,4.8,0.,4.8,0.,4.8
1980-11-13 15:11:28.450 ,3,0,2.,4.8,0.,4.8,0.,4.8,0.,4.8
1980-11-13 15:11:33.250 ,3,0,2.,4.8,0.,4.8,0.,4.8,0.,4.8
1980-11-13 15:11:38.050 ,3,0,2.,4.8,0.,4.8,0.,4.8,0.,4.8
1980-11-13 15:11:42.850 ,3,0,1.,4.8,0.,4.8,0.,4.8,0.,4.8
1980-11-13 15:11:47.650 ,4,0,4.,4.8,0.,4.8,0.,4.8,0.,4.8
1980-11-13 15:11:52.450 ,4,0,3.,4.8,0.,4.8,0.,4.8,0.,4.8
1980-11-13 15:11:57.250 ,4,0,6.,4.8,0.,4.8,0.,4.8,0.,4.8
1980-11-13 15:12:02.050 ,4,0,1.,4.8,0.,4.8,0.,4.8,0.,4.8
1980-11-13 15:12:06.850 ,4,0,3.,4.8,0.,4.8,0.,4.8,0.,4.8
1980-11-13 15:12:11.650 ,4,0,5.,4.8,0.,4.8,0.,4.8,0.,4.8
1980-11-13 15:12:16.450 ,4,0,4.,4.8,0.,4.8,0.,4.8,0.,4.8
1980-11-13 15:12:21.250 ,4,0,1.,4.8,0.,4.8,0.,4.8,0.,4.8
1980-11-13 15:12:26.050 ,4,0,3.,4.8,0.,4.8,0.,4.8,0.,4.8
1980-11-13 15:12:30.850 ,4,0,3.,4.8,0.,4.8,0.,4.8,0.,4.8
1980-11-13 15:12:35.650 ,5,0,2.,4.8,0.,4.8,0.,4.8,0.,4.8
1980-11-13 15:12:40.450 ,5,0,2.,4.8,0.,4.8,0.,4.8,0.,4.8
1980-11-13 15:12:45.250 ,5,0,5.,4.8,0.,4.8,0.,4.8,0.,4.8
1980-11-13 15:12:50.050 ,5,0,4.,4.8,0.,4.8,0.,4.8,0.,4.8
1980-11-13 15:12:54.850 ,5,0,6.,4.8,0.,4.8,0.,4.8,0.,4.8
1980-11-13 15:12:59.650 ,5,0,2.,4.8,0.,4.8,0.,4.8,0.,4.8
1980-11-13 15:13:04.450 ,5,0,1.,4.8,0.,4.8,0.,4.8,0.,4.8
1980-11-13 15:13:09.250 ,5,0,3.,4.8,0.,4.8,0.,4.8,0.,4.8
1980-11-13 15:13:14.050 ,5,0,2.,4.8,0.,4.8,0.,4.8,0.,4.8
1980-11-13 15:13:18.850 ,5,0,2.,4.8,0.,4.8,0.,4.8,1.,4.8
1980-11-13 15:13:23.650 ,6,0,1.,4.8,0.,4.8,0.,4.8,0.,4.8
1980-11-13 15:13:28.450 ,6,0,0.,4.8,0.,4.8,0.,4.8,0.,4.8
1980-11-13 15:13:33.250 ,6,0,3.,4.8,0.,4.8,0.,4.8,0.,4.8
1980-11-13 15:13:38.050 ,6,0,3.,4.8,0.,4.8,0.,4.8,0.,4.8
1980-11-13 15:13:42.850 ,6,0,4.,4.8,0.,4.8,0.,4.8,0.,4.8
1980-11-13 15:13:47.650 ,6,0,4.,4.8,0.,4.8,0.,4.8,0.,4.8
1980-11-13 15:13:52.450 ,6,0,4.,4.8,0.,4.8,0.,4.8,0.,4.8
1980-11-13 15:13:57.250 ,6,0,5.,4.8,0.,4.8,0.,4.8,0.,4.8
1980-11-13 15:14:02.050 ,6,0,3.,4.8,0.,4.8,0.,4.8,0.,4.8
1980-11-13 15:14:06.850 ,6,0,4.,4.8,0.,4.8,0.,4.8,0.,4.8
1980-11-13 15:14:11.650 ,7,0,2.,4.8,0.,4.8,0.,4.8,0.,4.8
1980-11-13 15:14:16.460 ,7,0,4.,4.8,0.,4.8,0.,4.8,0.,4.8
1980-11-13 15:14:21.260 ,7,0,3.,4.8,0.,4.8,0.,4.8,0.,4.8
1980-11-13 15:14:26.050 ,7,0,3.,4.8,0.,4.8,0.,4.8,0.,4.8
1980-11-13 15:14:30.850 ,7,0,2.,4.8,0.,4.8,0.,4.8,0.,4.8
1980-11-13 15:14:35.650 ,7,0,2.,4.8,0.,4.8,0.,4.8,0.,4.8
1980-11-13 15:14:40.460 ,7,0,3.,4.8,0.,4.8,0.,4.8,0.,4.8
1980-11-13 15:14:45.260 ,7,0,2.,4.8,0.,4.8,0.,4.8,0.,4.8
1980-11-13 15:14:50.050 ,7,0,3.,4.8,0.,4.8,0.,4.8,0.,4.8
1980-11-13 15:14:54.850 ,7,0,5.,4.8,0.,4.8,0.,4.8,0.,4.8
1980-11-13 15:14:59.650 ,7,0,5.,4.8,0.,4.8,0.,4.8,0.,4.8
1980-11-13 15:15:04.460 ,7,0,5.,4.8,0.,4.8,0.,4.8,0.,4.8
1980-11-13 15:15:09.260 ,7,0,1.,4.8,0.,4.8,0.,4.8,0.,4.8
1980-11-13 15:15:14.050 ,7,0,2.,4.8,0.,4.8,0.,4.8,0.,4.8
1980-11-13 15:15:18.850 ,7,0,6.,4.8,0.,4.8,0.,4.8,0.,4.8
1980-11-13 15:15:23.650 ,7,0,2.,4.8,0.,4.8,0.,4.8,0.,4.8
1980-11-13 15:15:28.460 ,7,0,1.,4.8,0.,4.8,0.,4.8,0.,4.8
1980-11-13 15:15:33.260 ,7,0,0.,4.8,0.,4.8,0.,4.8,0.,4.8
1980-11-13 15:15:38.050 ,7,0,3.,4.8,0.,4.8,0.,4.8,0.,4.8
1980-11-13 15:15:42.850 ,7,0,1.,4.8,0.,4.8,0.,4.8,0.,4.8
1980-11-13 15:15:47.650 ,6,0,2.,4.8,0.,4.8,0.,4.8,0.,4.8
1980-11-13 15:15:52.460 ,6,0,2.,4.8,0.,4.8,0.,4.8,0.,4.8
1980-11-13 15:15:57.260 ,6,0,2.,4.8,0.,4.8,0.,4.8,0.,4.8
1980-11-13 15:16:02.050 ,6,0,5.,4.8,0.,4.8,0.,4.8,0.,4.8
1980-11-13 15:16:06.850 ,6,0,3.,4.8,0.,4.8,0.,4.8,0.,4.8
1980-11-13 15:16:11.650 ,6,0,6.,4.8,0.,4.8,0.,4.8,0.,4.8
1980-11-13 15:16:16.460 ,6,0,5.,4.8,0.,4.8,0.,4.8,0.,4.8
1980-11-13 15:16:21.260 ,6,0,3.,4.8,0.,4.8,0.,4.8,0.,4.8
1980-11-13 15:16:26.050 ,6,0,3.,4.8,0.,4.8,0.,4.8,0.,4.8
1980-11-13 15:16:30.850 ,6,0,3.,4.8,0.,4.8,0.,4.8,0.,4.8
1980-11-13 15:16:35.650 ,5,0,4.,4.8,0.,4.8,0.,4.8,0.,4.8
1980-11-13 15:16:40.460 ,5,0,4.,4.8,0.,4.8,0.,4.8,0.,4.8
1980-11-13 15:16:45.260 ,5,0,3.,4.8,0.,4.8,0.,4.8,0.,4.8
1980-11-13 15:16:50.050 ,5,0,3.,4.8,0.,4.8,0.,4.8,0.,4.8
1980-11-13 15:16:54.850 ,5,0,5.,4.8,0.,4.8,0.,4.8,0.,4.8
1980-11-13 15:16:59.650 ,5,0,1.,4.8,0.,4.8,0.,4.8,0.,4.8
1980-11-13 15:17:04.450 ,5,0,3.,4.8,0.,4.8,0.,4.8,0.,4.8
1980-11-13 15:17:09.260 ,5,0,3.,4.8,0.,4.8,0.,4.8,0.,4.8
1980-11-13 15:17:14.060 ,5,0,1.,4.8,0.,4.8,0.,4.8,0.,4.8
1980-11-13 15:17:18.850 ,5,0,4.,4.8,0.,4.8,0.,4.8,0.,4.8
1980-11-13 15:17:23.660 ,4,0,4.,4.8,0.,4.8,0.,4.8,0.,4.8
1980-11-13 15:17:28.460 ,4,0,3.,4.8,0.,4.8,0.,4.8,0.,4.8
1980-11-13 15:17:33.260 ,4,0,1.,4.8,0.,4.8,0.,4.8,0.,4.8
1980-11-13 15:17:38.060 ,4,0,3.,4.8,0.,4.8,0.,4.8,0.,4.8
1980-11-13 15:17:42.860 ,4,0,6.,4.8,0.,4.8,0.,4.8,0.,4.8
1980-11-13 15:17:47.660 ,4,0,3.,4.8,0.,4.8,0.,4.8,0.,4.8
1980-11-13 15:17:52.460 ,4,0,1.,4.8,0.,4.8,0.,4.8,1.,4.8
1980-11-13 15:17:57.260 ,4,0,3.,4.8,0.,4.8,0.,4.8,0.,4.8
1980-11-13 15:18:02.060 ,4,0,4.,4.8,0.,4.8,0.,4.8,0.,4.8
1980-11-13 15:18:06.860 ,4,0,0.,4.8,0.,4.8,0.,4.8,0.,4.8
1980-11-13 15:18:11.660 ,3,0,1.,4.8,0.,4.8,0.,4.8,0.,4.8
1980-11-13 15:18:16.460 ,3,0,6.,4.8,0.,4.8,0.,4.8,0.,4.8
1980-11-13 15:18:21.260 ,3,0,0.,4.8,0.,4.8,0.,4.8,0.,4.8
1980-11-13 15:18:26.060 ,3,0,1.,4.8,0.,4.8,0.,4.8,0.,4.8
1980-11-13 15:18:30.860 ,3,0,7.,4.8,0.,4.8,0.,4.8,0.,4.8
1980-11-13 15:18:35.660 ,3,0,0.,4.8,0.,4.8,0.,4.8,0.,4.8
1980-11-13 15:18:40.460 ,3,0,4.,4.8,0.,4.8,0.,4.8,0.,4.8
1980-11-13 15:18:45.260 ,3,0,4.,4.8,0.,4.8,0.,4.8,0.,4.8
1980-11-13 15:18:50.060 ,3,0,4.,4.8,0.,4.8,0.,4.8,0.,4.8
1980-11-13 15:18:54.860 ,3,0,0.,4.8,0.,4.8,0.,4.8,0.,4.8
1980-11-13 15:18:59.660 ,2,0,5.,4.8,0.,4.8,0.,4.8,0.,4.8
1980-11-13 15:19:04.460 ,2,0,4.,4.8,0.,4.8,0.,4.8,0.,4.8
1980-11-13 15:19:09.260 ,2,0,2.,4.8,0.,4.8,0.,4.8,0.,4.8
1980-11-13 15:19:14.060 ,2,0,2.,4.8,0.,4.8,0.,4.8,0.,4.8
1980-11-13 15:19:18.860 ,2,0,5.,4.8,0.,4.8,0.,4.8,0.,4.8
1980-11-13 15:19:23.660 ,2,0,2.,4.8,0.,4.8,0.,4.8,0.,4.8
1980-11-13 15:19:28.460 ,2,0,4.,4.8,0.,4.8,0.,4.8,0.,4.8
1980-11-13 15:19:33.260 ,2,0,1.,4.8,0.,4.8,0.,4.8,0.,4.8
1980-11-13 15:19:38.060 ,2,0,5.,4.8,0.,4.8,0.,4.8,0.,4.8
1980-11-13 15:19:42.860 ,2,0,3.,4.8,0.,4.8,0.,4.8,0.,4.8
1980-11-13 15:19:47.660 ,1,0,3.,4.8,0.,4.8,0.,4.8,0.,4.8
1980-11-13 15:19:52.460 ,1,0,3.,4.8,0.,4.8,0.,4.8,0.,4.8
1980-11-13 15:19:57.260 ,1,0,4.,4.8,0.,4.8,0.,4.8,0.,4.8
1980-11-13 15:20:02.060 ,1,0,2.,4.8,0.,4.8,0.,4.8,0.,4.8
1980-11-13 15:20:06.860 ,1,0,1.,4.8,0.,4.8,0.,4.8,0.,4.8
1980-11-13 15:20:11.660 ,1,0,2.,4.8,0.,4.8,0.,4.8,0.,4.8
1980-11-13 15:20:16.460 ,1,0,3.,4.8,0.,4.8,0.,4.8,0.,4.8
1980-11-13 15:20:21.260 ,1,0,1.,4.8,0.,4.8,0.,4.8,0.,4.8
1980-11-13 15:20:26.060 ,1,0,1.,4.8,0.,4.8,0.,4.8,0.,4.8
1980-11-13 15:20:30.860 ,1,0,1.,4.8,0.,4.8,0.,4.8,0.,4.8
1980-11-13 15:20:35.660 ,0,0,5.,4.8,0.,4.8,0.,4.8,0.,4.8
1980-11-13 15:20:40.460 ,0,0,4.,4.8,0.,4.8,0.,4.8,0.,4.8
1980-11-13 15:20:45.260 ,0,0,1.,4.8,0.,4.8,0.,4.8,0.,4.8
1980-11-13 15:20:50.060 ,0,0,1.,4.8,0.,4.8,0.,4.8,0.,4.8
1980-11-13 15:20:54.860 ,0,0,0.,4.8,0.,4.8,0.,4.8,0.,4.8
1980-11-13 15:20:59.660 ,0,0,1.,4.8,0.,4.8,0.,4.8,0.,4.8
1980-11-13 15:21:04.460 ,0,0,6.,4.8,0.,4.8,0.,4.8,0.,4.8
1980-11-13 15:21:09.260 ,0,0,1.,4.8,0.,4.8,0.,4.8,0.,4.8
1980-11-13 15:21:14.060 ,0,0,4.,4.8,0.,4.8,0.,4.8,0.,4.8
1980-11-13 15:21:18.860 ,0,0,7.,4.8,0.,4.8,0.,4.8,0.,4.8
1980-11-13 15:21:23.660 ,0,0,3.,4.8,0.,4.8,0.,4.8,0.,4.8
1980-11-13 15:21:28.460 ,0,0,4.,4.8,0.,4.8,0.,4.8,0.,4.8
1980-11-13 15:21:33.260 ,0,0,2.,4.8,0.,4.8,0.,4.8,0.,4.8
1980-11-13 15:21:38.060 ,0,0,3.,4.8,0.,4.8,0.,4.8,0.,4.8
1980-11-13 15:21:42.860 ,0,0,4.,4.8,0.,4.8,0.,4.8,0.,4.8
1980-11-13 15:21:47.660 ,0,0,2.,4.8,0.,4.8,0.,4.8,0.,4.8
1980-11-13 15:21:52.460 ,0,0,0.,4.8,0.,4.8,0.,4.8,0.,4.8
1980-11-13 15:21:57.260 ,0,0,1.,4.8,0.,4.8,0.,4.8,0.,4.8
1980-11-13 15:22:02.060 ,0,0,3.,4.8,0.,4.8,0.,4.8,0.,4.8
1980-11-13 15:22:06.860 ,0,0,2.,4.8,0.,4.8,0.,4.8,0.,4.8
1980-11-13 15:22:11.660 ,1,0,3.,4.8,0.,4.8,0.,4.8,0.,4.8
1980-11-13 15:22:16.460 ,1,0,1.,4.8,0.,4.8,0.,4.8,0.,4.8
1980-11-13 15:22:21.260 ,1,0,6.,4.8,0.,4.8,0.,4.8,0.,4.8
1980-11-13 15:22:26.060 ,1,0,1.,4.8,0.,4.8,0.,4.8,0.,4.8
1980-11-13 15:22:30.860 ,1,0,3.,4.8,0.,4.8,0.,4.8,0.,4.8
1980-11-13 15:22:35.660 ,1,0,1.,4.8,0.,4.8,0.,4.8,0.,4.8
1980-11-13 15:22:40.460 ,1,0,2.,4.8,0.,4.8,0.,4.8,0.,4.8
1980-11-13 15:22:45.260 ,1,0,3.,4.8,0.,4.8,0.,4.8,0.,4.8
1980-11-13 15:22:50.060 ,1,0,3.,4.8,0.,4.8,0.,4.8,0.,4.8
1980-11-13 15:22:54.860 ,1,0,6.,4.8,0.,4.8,0.,4.8,0.,4.8
1980-11-13 15:22:59.660 ,2,0,4.,4.8,0.,4.8,0.,4.8,0.,4.8
1980-11-13 15:23:04.460 ,2,0,2.,4.8,0.,4.8,0.,4.8,0.,4.8
1980-11-13 15:23:09.260 ,2,0,4.,4.8,0.,4.8,0.,4.8,0.,4.8
1980-11-13 15:23:14.060 ,2,0,3.,4.8,0.,4.8,0.,4.8,0.,4.8
1980-11-13 15:23:18.860 ,2,0,3.,4.8,0.,4.8,0.,4.8,0.,4.8
1980-11-13 15:23:23.660 ,2,0,4.,4.8,0.,4.8,0.,4.8,0.,4.8
1980-11-13 15:23:28.460 ,2,0,5.,4.8,0.,4.8,0.,4.8,0.,4.8
1980-11-13 15:23:33.260 ,2,0,7.,4.8,0.,4.8,0.,4.8,0.,4.8
1980-11-13 15:23:38.060 ,2,0,0.,4.8,0.,4.8,0.,4.8,0.,4.8
1980-11-13 15:23:42.860 ,2,0,4.,4.8,0.,4.8,0.,4.8,0.,4.8
1980-11-13 15:23:47.660 ,3,0,6.,4.8,0.,4.8,0.,4.8,0.,4.8
1980-11-13 15:23:52.460 ,3,0,4.,4.8,0.,4.8,0.,4.8,0.,4.8
1980-11-13 15:23:57.260 ,3,0,3.,4.8,0.,4.8,0.,4.8,0.,4.8
1980-11-13 15:24:02.060 ,3,0,3.,4.8,0.,4.8,0.,4.8,0.,4.8
1980-11-13 15:24:06.860 ,3,0,2.,4.8,0.,4.8,0.,4.8,0.,4.8
1980-11-13 15:24:11.660 ,3,0,5.,4.8,0.,4.8,0.,4.8,0.,4.8
1980-11-13 15:24:16.460 ,3,0,4.,4.8,0.,4.8,0.,4.8,0.,4.8
1980-11-13 15:24:21.260 ,3,0,2.,4.8,0.,4.8,0.,4.8,0.,4.8
1980-11-13 15:24:26.060 ,3,0,3.,4.8,0.,4.8,0.,4.8,0.,4.8
1980-11-13 15:24:30.860 ,3,0,0.,4.8,0.,4.8,0.,4.8,0.,4.8
1980-11-13 15:24:35.660 ,4,0,5.,4.8,0.,4.8,0.,4.8,0.,4.8
1980-11-13 15:24:40.460 ,4,0,3.,4.8,0.,4.8,0.,4.8,0.,4.8
1980-11-13 15:24:45.260 ,4,0,4.,4.8,0.,4.8,0.,4.8,0.,4.8
1980-11-13 15:24:50.060 ,4,0,2.,4.8,0.,4.8,0.,4.8,0.,4.8
1980-11-13 15:24:54.860 ,4,0,3.,4.8,0.,4.8,0.,4.8,0.,4.8
1980-11-13 15:24:59.660 ,4,0,2.,4.8,0.,4.8,0.,4.8,0.,4.8
1980-11-13 15:25:04.460 ,4,0,1.,4.8,0.,4.8,0.,4.8,0.,4.8
1980-11-13 15:25:09.260 ,4,0,0.,4.8,0.,4.8,0.,4.8,0.,4.8
1980-11-13 15:25:14.060 ,4,0,3.,4.8,0.,4.8,0.,4.8,0.,4.8
1980-11-13 15:25:18.860 ,4,0,5.,4.8,0.,4.8,0.,4.8,0.,4.8
1980-11-13 15:25:23.660 ,5,0,6.,4.8,0.,4.8,0.,4.8,0.,4.8
1980-11-13 15:25:28.460 ,5,0,4.,4.8,0.,4.8,0.,4.8,0.,4.8
1980-11-13 15:25:33.260 ,5,0,0.,4.8,0.,4.8,0.,4.8,0.,4.8
1980-11-13 15:25:38.060 ,5,0,6.,4.8,0.,4.8,0.,4.8,0.,4.8
1980-11-13 15:25:42.860 ,5,0,3.,4.8,0.,4.8,0.,4.8,0.,4.8
1980-11-13 15:25:47.660 ,5,0,4.,4.8,0.,4.8,0.,4.8,0.,4.8
1980-11-13 15:25:52.460 ,5,0,3.,4.8,0.,4.8,0.,4.8,0.,4.8
1980-11-13 15:25:57.260 ,5,0,4.,4.8,0.,4.8,0.,4.8,0.,4.8
1980-11-13 15:26:02.060 ,5,0,1.,4.8,0.,4.8,0.,4.8,0.,4.8
1980-11-13 15:26:06.860 ,5,0,3.,4.8,0.,4.8,0.,4.8,0.,4.8
1980-11-13 15:26:11.660 ,6,0,2.,4.8,0.,4.8,0.,4.8,0.,4.8
1980-11-13 15:26:16.460 ,6,0,2.,4.8,0.,4.8,0.,4.8,0.,4.8
1980-11-13 15:26:21.260 ,6,0,4.,4.8,0.,4.8,0.,4.8,0.,4.8
1980-11-13 15:26:26.060 ,6,0,4.,4.8,0.,4.8,0.,4.8,0.,4.8
1980-11-13 15:26:30.860 ,6,0,1.,4.8,0.,4.8,0.,4.8,0.,4.8
1980-11-13 15:26:35.660 ,6,0,1.,4.8,0.,4.8,0.,4.8,0.,4.8
1980-11-13 15:26:40.460 ,6,0,1.,4.8,0.,4.8,0.,4.8,0.,4.8
1980-11-13 15:26:45.260 ,6,0,2.,4.8,0.,4.8,0.,4.8,0.,4.8
1980-11-13 15:26:50.060 ,6,0,2.,4.8,0.,4.8,0.,4.8,0.,4.8
1980-11-13 15:26:54.860 ,6,0,1.,4.8,0.,4.8,0.,4.8,0.,4.8
1980-11-13 15:26:59.660 ,7,0,2.,4.8,0.,4.8,0.,4.8,0.,4.8
1980-11-13 15:27:04.460 ,7,0,1.,4.8,0.,4.8,0.,4.8,0.,4.8
1980-11-13 15:27:09.260 ,7,0,2.,4.8,0.,4.8,0.,4.8,0.,4.8
1980-11-13 15:27:14.060 ,7,0,1.,4.8,0.,4.8,0.,4.8,0.,4.8
1980-11-13 15:27:18.860 ,7,0,1.,4.8,0.,4.8,0.,4.8,0.,4.8
1980-11-13 15:27:23.660 ,7,0,6.,4.8,0.,4.8,0.,4.8,0.,4.8
1980-11-13 15:27:28.460 ,7,0,2.,4.8,0.,4.8,0.,4.8,0.,4.8
1980-11-13 15:27:33.260 ,7,0,3.,4.8,0.,4.8,0.,4.8,0.,4.8
1980-11-13 15:27:38.060 ,7,0,3.,4.8,0.,4.8,0.,4.8,0.,4.8
1980-11-13 15:27:42.860 ,7,0,4.,4.8,0.,4.8,0.,4.8,0.,4.8
1980-11-13 15:27:47.660 ,7,0,1.,4.8,0.,4.8,0.,4.8,0.,4.8
1980-11-13 15:27:52.460 ,7,0,5.,4.8,0.,4.8,0.,4.8,0.,4.8
1980-11-13 15:27:57.260 ,7,0,3.,4.8,0.,4.8,0.,4.8,0.,4.8
1980-11-13 15:28:02.060 ,7,0,2.,4.8,0.,4.8,0.,4.8,0.,4.8
1980-11-13 15:28:06.860 ,7,0,3.,4.8,0.,4.8,0.,4.8,0.,4.8
1980-11-13 15:28:11.660 ,7,0,4.,4.8,0.,4.8,0.,4.8,0.,4.8
1980-11-13 15:28:16.460 ,7,0,5.,4.8,0.,4.8,0.,4.8,0.,4.8
1980-11-13 15:28:21.260 ,7,0,6.,4.8,0.,4.8,0.,4.8,0.,4.8
1980-11-13 15:28:26.060 ,7,0,1.,4.8,0.,4.8,0.,4.8,0.,4.8
1980-11-13 15:28:30.860 ,7,0,4.,4.8,0.,4.8,0.,4.8,0.,4.8
1980-11-13 15:28:35.660 ,6,0,3.,4.8,0.,4.8,0.,4.8,0.,4.8
1980-11-13 15:28:40.460 ,6,0,4.,4.8,0.,4.8,0.,4.8,0.,4.8
1980-11-13 15:28:45.260 ,6,0,3.,4.8,0.,4.8,0.,4.8,0.,4.8
1980-11-13 15:28:50.060 ,6,0,4.,4.8,0.,4.8,0.,4.8,0.,4.8
1980-11-13 15:28:54.860 ,6,0,2.,4.8,0.,4.8,0.,4.8,0.,4.8
1980-11-13 15:28:59.660 ,6,0,1.,4.8,0.,4.8,0.,4.8,0.,4.8
1980-11-13 15:29:04.460 ,6,0,0.,4.8,0.,4.8,0.,4.8,0.,4.8
1980-11-13 15:29:09.260 ,6,0,2.,4.8,0.,4.8,0.,4.8,0.,4.8
1980-11-13 15:29:14.060 ,6,0,5.,4.8,0.,4.8,0.,4.8,0.,4.8
1980-11-13 15:29:18.860 ,6,0,4.,4.8,0.,4.8,0.,4.8,0.,4.8
1980-11-13 15:29:23.660 ,5,0,3.,4.8,0.,4.8,0.,4.8,0.,4.8
1980-11-13 15:29:28.460 ,5,0,2.,4.8,0.,4.8,0.,4.8,0.,4.8
1980-11-13 15:29:33.260 ,5,0,5.,4.8,0.,4.8,0.,4.8,0.,4.8
1980-11-13 15:29:38.060 ,5,0,4.,4.8,0.,4.8,0.,4.8,0.,4.8
1980-11-13 15:29:42.860 ,5,0,2.,4.8,0.,4.8,0.,4.8,0.,4.8
1980-11-13 15:29:47.660 ,5,0,5.,4.8,0.,4.8,0.,4.8,0.,4.8
1980-11-13 15:29:52.460 ,5,0,3.,4.8,0.,4.8,0.,4.8,0.,4.8
1980-11-13 15:29:57.260 ,5,0,7.,4.8,0.,4.8,0.,4.8,0.,4.8
1980-11-13 15:30:02.060 ,5,0,4.,4.8,0.,4.8,0.,4.8,0.,4.8
1980-11-13 15:30:06.860 ,5,0,2.,4.8,0.,4.8,0.,4.8,0.,4.8
1980-11-13 15:30:11.660 ,4,0,2.,4.8,0.,4.8,0.,4.8,0.,4.8
1980-11-13 15:30:16.460 ,4,0,1.,4.8,0.,4.8,0.,4.8,0.,4.8
1980-11-13 15:30:21.260 ,4,0,2.,4.8,0.,4.8,0.,4.8,0.,4.8
1980-11-13 15:30:26.060 ,4,0,2.,4.8,0.,4.8,0.,4.8,0.,4.8
1980-11-13 15:30:30.860 ,4,0,4.,4.8,0.,4.8,0.,4.8,0.,4.8
1980-11-13 15:30:35.660 ,4,0,6.,4.8,0.,4.8,0.,4.8,0.,4.8
1980-11-13 15:30:40.460 ,4,0,2.,4.8,0.,4.8,0.,4.8,0.,4.8
1980-11-13 15:30:45.260 ,4,0,4.,4.8,0.,4.8,0.,4.8,0.,4.8
1980-11-13 15:30:50.060 ,4,0,0.,4.8,0.,4.8,0.,4.8,0.,4.8
1980-11-13 15:30:54.860 ,4,0,6.,4.8,0.,4.8,0.,4.8,0.,4.8
1980-11-13 15:30:59.660 ,3,0,3.,4.8,0.,4.8,0.,4.8,0.,4.8
1980-11-13 15:31:04.460 ,3,0,2.,4.8,0.,4.8,0.,4.8,0.,4.8
1980-11-13 15:31:09.260 ,3,0,2.,4.8,0.,4.8,0.,4.8,0.,4.8
1980-11-13 15:31:14.060 ,3,0,5.,4.8,0.,4.8,0.,4.8,0.,4.8
1980-11-13 15:31:18.860 ,3,0,5.,4.8,0.,4.8,0.,4.8,0.,4.8
1980-11-13 15:31:23.660 ,3,0,1.,4.8,0.,4.8,0.,4.8,0.,4.8
1980-11-13 15:31:28.460 ,3,0,2.,4.8,0.,4.8,0.,4.8,0.,4.8
1980-11-13 15:31:33.260 ,3,0,3.,4.8,0.,4.8,0.,4.8,0.,4.8
1980-11-13 15:31:38.060 ,3,0,3.,4.8,0.,4.8,0.,4.8,0.,4.8
1980-11-13 15:31:42.860 ,3,0,5.,4.8,0.,4.8,0.,4.8,0.,4.8
1980-11-13 15:31:47.660 ,2,0,4.,4.8,0.,4.8,0.,4.8,0.,4.8
1980-11-13 15:31:52.460 ,2,0,1.,4.8,0.,4.8,0.,4.8,0.,4.8
1980-11-13 15:31:57.260 ,2,0,3.,4.8,0.,4.8,0.,4.8,0.,4.8
1980-11-13 15:32:02.060 ,2,0,5.,4.8,0.,4.8,0.,4.8,0.,4.8
1980-11-13 15:32:06.860 ,2,0,5.,4.8,0.,4.8,0.,4.8,0.,4.8
1980-11-13 15:32:11.660 ,2,0,2.,4.8,0.,4.8,0.,4.8,0.,4.8
1980-11-13 15:32:16.460 ,2,0,7.,4.8,0.,4.8,0.,4.8,0.,4.8
1980-11-13 15:32:21.260 ,2,0,3.,4.8,0.,4.8,0.,4.8,0.,4.8
1980-11-13 15:32:26.060 ,2,0,3.,4.8,0.,4.8,0.,4.8,0.,4.8
1980-11-13 15:32:30.860 ,2,0,4.,4.8,0.,4.8,0.,4.8,0.,4.8
1980-11-13 15:32:35.660 ,1,0,4.,4.8,0.,4.8,0.,4.8,0.,4.8
1980-11-13 15:32:40.460 ,1,0,2.,4.8,0.,4.8,0.,4.8,0.,4.8
1980-11-13 15:32:45.260 ,1,0,2.,4.8,0.,4.8,0.,4.8,0.,4.8
1980-11-13 15:32:50.060 ,1,0,5.,4.8,0.,4.8,0.,4.8,0.,4.8
1980-11-13 15:32:54.860 ,1,0,1.,4.8,0.,4.8,0.,4.8,0.,4.8
1980-11-13 15:32:59.660 ,1,0,5.,4.8,0.,4.8,0.,4.8,0.,4.8
1980-11-13 15:33:04.460 ,1,0,5.,4.8,0.,4.8,0.,4.8,0.,4.8